AAL2874 KDFW-MMUN

Flight info

Callsign AAL2874
Flight time 2h 7m
Altitude 35000
Route DARTZ9 TNV DCT SBI A766 KEHLI UL209 BETAS DCT VOMAR VOMAR1A
Aircraft A321/M-SDE3FGHIRWY/LB1

Departure

Time 2026-05-05 15:05
Airport Dallas Fort Worth International Airport (KDFW)

Arrival

Time 2026-05-05 17:13
Airport Cancún International Airport (MMUN)
Time Latitude Longitude Altitude Speed Heading
2026-05-05 14:37 32.90006 -97.03645 587 ft 0 kts 202°
2026-05-05 14:55 32.90019 -97.03639 587 ft 4 kts 202°
2026-05-05 14:55 32.90040 -97.03628 587 ft 4 kts 209°
2026-05-05 14:55 32.90057 -97.03609 587 ft 4 kts 263°
2026-05-05 14:56 32.90051 -97.03582 587 ft 4 kts 313°
2026-05-05 14:56 32.90031 -97.03562 587 ft 4 kts 324°
2026-05-05 14:56 32.90022 -97.03555 587 ft 0 kts 324°
2026-05-05 14:59 32.90026 -97.03558 587 ft 3 kts 324°
2026-05-05 14:59 32.90069 -97.03559 587 ft 9 kts 31°
2026-05-05 14:59 32.90091 -97.03493 587 ft 10 kts 84°
2026-05-05 15:00 32.90090 -97.03409 587 ft 11 kts 92°
2026-05-05 15:00 32.90089 -97.03348 586 ft 12 kts 89°
2026-05-05 15:00 32.90188 -97.03313 585 ft 15 kts
2026-05-05 15:00 32.90299 -97.03312 585 ft 16 kts
2026-05-05 15:01 32.90414 -97.03312 585 ft 17 kts
2026-05-05 15:01 32.90532 -97.03311 585 ft 18 kts
2026-05-05 15:01 32.90656 -97.03310 585 ft 18 kts 360°
2026-05-05 15:01 32.90784 -97.03309 585 ft 18 kts
2026-05-05 15:02 32.90914 -97.03309 585 ft 19 kts 359°
2026-05-05 15:02 32.91038 -97.03279 582 ft 17 kts 16°
2026-05-05 15:02 32.91160 -97.03273 580 ft 18 kts 359°
2026-05-05 15:02 32.91276 -97.03273 582 ft 15 kts
2026-05-05 15:03 32.91388 -97.03272 579 ft 17 kts
2026-05-05 15:03 32.91511 -97.03272 578 ft 17 kts
2026-05-05 15:03 32.91561 -97.03208 578 ft 12 kts 85°
2026-05-05 15:03 32.91560 -97.03106 577 ft 13 kts 91°
2026-05-05 15:04 32.91551 -97.03005 578 ft 12 kts 122°
2026-05-05 15:04 32.91486 -97.02988 578 ft 11 kts 180°
2026-05-05 15:04 32.91341 -97.02990 578 ft 46 kts 181°
2026-05-05 15:04 32.90791 -97.02994 576 ft 110 kts 180°
2026-05-05 15:05 32.89090 -97.03003 816 ft 165 kts 184°
2026-05-05 15:05 32.87569 -97.02994 1695 ft 163 kts 185°
2026-05-05 15:05 32.86814 -97.02985 2134 ft 164 kts 187°
2026-05-05 15:06 32.85628 -97.02974 2423 ft 180 kts 189°
2026-05-05 15:06 32.84296 -97.02981 2565 ft 202 kts 188°
2026-05-05 15:06 32.82806 -97.02992 2682 ft 227 kts 188°
2026-05-05 15:06 32.81163 -97.03003 3061 ft 241 kts 189°
2026-05-05 15:07 32.79460 -97.03006 3660 ft 249 kts 187°
2026-05-05 15:07 32.77701 -97.03006 4209 ft 256 kts 187°
2026-05-05 15:07 32.75902 -97.03005 4746 ft 262 kts 187°
2026-05-05 15:07 32.74060 -97.03008 5337 ft 266 kts 186°
2026-05-05 15:08 32.72198 -97.03015 5943 ft 269 kts 186°
2026-05-05 15:08 32.70318 -97.02750 6517 ft 280 kts 169°
2026-05-05 15:08 32.68456 -97.01868 6920 ft 293 kts 161°
2026-05-05 15:08 32.66576 -97.00895 7501 ft 297 kts 161°
2026-05-05 15:09 32.64668 -96.99911 8132 ft 300 kts 161°
2026-05-05 15:09 32.62743 -96.98920 8818 ft 303 kts 161°
2026-05-05 15:09 32.60798 -96.97921 9592 ft 306 kts 162°
2026-05-05 15:09 32.58833 -96.96925 10275 ft 309 kts 163°
2026-05-05 15:10 32.56806 -96.95928 10645 ft 326 kts 163°
2026-05-05 15:10 32.54645 -96.94852 10775 ft 347 kts 162°
2026-05-05 15:10 32.52368 -96.93678 10912 ft 366 kts 161°
2026-05-05 15:10 32.50016 -96.92435 11312 ft 374 kts 161°
2026-05-05 15:11 32.47627 -96.91155 11824 ft 378 kts 161°
2026-05-05 15:11 32.45214 -96.89866 12373 ft 382 kts 161°
2026-05-05 15:11 32.42776 -96.88569 12900 ft 386 kts 161°
2026-05-05 15:11 32.40308 -96.87264 13453 ft 390 kts 162°
2026-05-05 15:12 32.37817 -96.85953 13957 ft 394 kts 162°
2026-05-05 15:12 32.35303 -96.84634 14491 ft 396 kts 162°
2026-05-05 15:12 32.32804 -96.83325 14941 ft 400 kts 162°
2026-05-05 15:12 32.30248 -96.81991 15493 ft 402 kts 163°
2026-05-05 15:13 32.27662 -96.80750 16059 ft 399 kts 169°
2026-05-05 15:13 32.25021 -96.79717 16640 ft 400 kts 169°
2026-05-05 15:13 32.22370 -96.78687 17233 ft 402 kts 169°
2026-05-05 15:13 32.19708 -96.77655 17821 ft 403 kts 169°
2026-05-05 15:14 32.17037 -96.76616 18350 ft 405 kts 170°
2026-05-05 15:14 32.14346 -96.75568 18738 ft 410 kts 170°
2026-05-05 15:14 32.11623 -96.74508 19146 ft 414 kts 170°
2026-05-05 15:14 32.08870 -96.73440 19569 ft 418 kts 170°
2026-05-05 15:15 32.06091 -96.72361 19989 ft 423 kts 171°
2026-05-05 15:15 32.03286 -96.71270 20386 ft 427 kts 171°
2026-05-05 15:15 32.00452 -96.70170 20794 ft 431 kts 171°
2026-05-05 15:15 31.97589 -96.69060 21187 ft 434 kts 171°
2026-05-05 15:16 31.94703 -96.67942 21572 ft 438 kts 171°
2026-05-05 15:16 31.91789 -96.66814 21942 ft 442 kts 171°
2026-05-05 15:16 31.88860 -96.65679 22279 ft 445 kts 171°
2026-05-05 15:16 31.85917 -96.64538 22700 ft 446 kts 171°
2026-05-05 15:17 31.82961 -96.63390 23076 ft 449 kts 171°
2026-05-05 15:17 31.79979 -96.62233 23429 ft 452 kts 172°
2026-05-05 15:17 31.76985 -96.61077 23719 ft 455 kts 172°
2026-05-05 15:17 31.73964 -96.59914 24013 ft 458 kts 172°
2026-05-05 15:18 31.70925 -96.58746 24315 ft 460 kts 172°
2026-05-05 15:18 31.67876 -96.57574 24616 ft 463 kts 171°
2026-05-05 15:18 31.64809 -96.56394 24912 ft 465 kts 171°
2026-05-05 15:18 31.61724 -96.55207 25191 ft 467 kts 171°
2026-05-05 15:19 31.58632 -96.54018 25507 ft 469 kts 171°
2026-05-05 15:19 31.55549 -96.52834 25795 ft 472 kts 171°
2026-05-05 15:19 31.52427 -96.51635 26070 ft 474 kts 171°
2026-05-05 15:19 31.49283 -96.50431 26361 ft 476 kts 171°
2026-05-05 15:20 31.46120 -96.49235 26642 ft 478 kts 172°
2026-05-05 15:20 31.42940 -96.48046 26923 ft 480 kts 172°
2026-05-05 15:20 31.39742 -96.46859 27193 ft 483 kts 172°
2026-05-05 15:20 31.36526 -96.45668 27398 ft 487 kts 172°
2026-05-05 15:21 31.33289 -96.44467 27637 ft 489 kts 171°
2026-05-05 15:21 31.30043 -96.43253 27920 ft 491 kts 171°
2026-05-05 15:21 31.26784 -96.42028 28186 ft 493 kts 171°
2026-05-05 15:21 31.23510 -96.40801 28447 ft 495 kts 171°
2026-05-05 15:22 31.20222 -96.39572 28703 ft 498 kts 171°
2026-05-05 15:22 31.16915 -96.38337 28972 ft 500 kts 171°
2026-05-05 15:22 31.13590 -96.37096 29238 ft 502 kts 171°
2026-05-05 15:22 31.10251 -96.35853 29489 ft 505 kts 171°
2026-05-05 15:23 31.06904 -96.34605 29791 ft 505 kts 171°
2026-05-05 15:23 31.03607 -96.33374 30101 ft 504 kts 171°
2026-05-05 15:23 31.00269 -96.32126 30406 ft 504 kts 171°
2026-05-05 15:23 30.96930 -96.30883 30719 ft 503 kts 171°
2026-05-05 15:24 30.93595 -96.29649 31085 ft 502 kts 171°
2026-05-05 15:24 30.90268 -96.28422 31397 ft 501 kts 171°
2026-05-05 15:24 30.86952 -96.27197 31714 ft 500 kts 171°
2026-05-05 15:24 30.83634 -96.25969 32038 ft 500 kts 171°
2026-05-05 15:25 30.80320 -96.24742 32327 ft 499 kts 171°
2026-05-05 15:25 30.77014 -96.23518 32662 ft 497 kts 172°
2026-05-05 15:25 30.73721 -96.22298 32980 ft 496 kts 172°
2026-05-05 15:25 30.70430 -96.21082 33281 ft 495 kts 172°
2026-05-05 15:26 30.67149 -96.19874 33574 ft 495 kts 172°
2026-05-05 15:26 30.63870 -96.18667 33863 ft 494 kts 172°
2026-05-05 15:26 30.60588 -96.17460 34085 ft 493 kts 172°
2026-05-05 15:26 30.57310 -96.16258 34326 ft 492 kts 172°
2026-05-05 15:27 30.54048 -96.15062 34576 ft 491 kts 172°
2026-05-05 15:27 30.50836 -96.13882 34764 ft 491 kts 172°
2026-05-05 15:27 30.47538 -96.12670 34783 ft 490 kts 172°
2026-05-05 15:28 30.41091 -96.10309 34748 ft 489 kts 172°
2026-05-05 15:28 30.34678 -96.07546 34699 ft 505 kts 159°
2026-05-05 15:28 30.31727 -96.05244 34687 ft 519 kts 146°
2026-05-05 15:29 30.29152 -96.02252 34686 ft 530 kts 134°
2026-05-05 15:29 30.27083 -95.98682 34687 ft 539 kts 121°
2026-05-05 15:29 30.25617 -95.94682 34687 ft 543 kts 110°
2026-05-05 15:30 30.23228 -95.86394 34749 ft 543 kts 110°
2026-05-05 15:30 30.20825 -95.78098 34806 ft 543 kts 110°
2026-05-05 15:31 30.18406 -95.69820 34828 ft 544 kts 110°
2026-05-05 15:31 30.15979 -95.61535 34918 ft 544 kts 110°
2026-05-05 15:32 30.13569 -95.53307 34919 ft 544 kts 110°
2026-05-05 15:32 30.11134 -95.45020 34920 ft 545 kts 110°
2026-05-05 15:33 30.08698 -95.36726 34919 ft 545 kts 110°
2026-05-05 15:33 30.06258 -95.28441 34927 ft 545 kts 110°
2026-05-05 15:34 30.03802 -95.20159 34919 ft 545 kts 110°
2026-05-05 15:34 30.01343 -95.11882 34894 ft 545 kts 110°
2026-05-05 15:35 29.98891 -95.03615 34909 ft 544 kts 110°
2026-05-05 15:35 29.96427 -94.95363 34920 ft 544 kts 110°
2026-05-05 15:36 29.93956 -94.87129 34930 ft 543 kts 110°
2026-05-05 15:36 29.91482 -94.78894 34929 ft 543 kts 110°
2026-05-05 15:37 29.89015 -94.70658 34937 ft 543 kts 110°
2026-05-05 15:37 29.86539 -94.62440 34937 ft 543 kts 110°
2026-05-05 15:38 29.84063 -94.54276 34953 ft 543 kts 110°
2026-05-05 15:38 29.81568 -94.46063 34950 ft 542 kts 110°
2026-05-05 15:39 29.79081 -94.37869 34950 ft 542 kts 110°
2026-05-05 15:39 29.76590 -94.29678 34950 ft 542 kts 110°
2026-05-05 15:40 29.74091 -94.21493 34936 ft 542 kts 110°
2026-05-05 15:40 29.71588 -94.13316 34954 ft 541 kts 110°
2026-05-05 15:41 29.68301 -94.05586 34953 ft 535 kts 128°
2026-05-05 15:41 29.63371 -93.99323 34955 ft 524 kts 146°
2026-05-05 15:42 29.57574 -93.94318 34963 ft 521 kts 149°
2026-05-05 15:42 29.51758 -93.89345 34962 ft 521 kts 149°
2026-05-05 15:43 29.45937 -93.84371 34941 ft 521 kts 149°
2026-05-05 15:43 29.40119 -93.79401 34958 ft 521 kts 149°
2026-05-05 15:44 29.34298 -93.74448 34970 ft 521 kts 149°
2026-05-05 15:44 29.28484 -93.69505 34972 ft 520 kts 149°
2026-05-05 15:45 29.22704 -93.64603 34970 ft 520 kts 149°
2026-05-05 15:45 29.16885 -93.59681 34952 ft 520 kts 149°
2026-05-05 15:46 29.11068 -93.54755 34963 ft 520 kts 149°
2026-05-05 15:46 29.05252 -93.49836 34970 ft 520 kts 149°
2026-05-05 15:47 28.99439 -93.44938 34975 ft 520 kts 149°
2026-05-05 15:47 28.93617 -93.40037 34976 ft 520 kts 149°
2026-05-05 15:48 28.87802 -93.35141 34958 ft 519 kts 149°
2026-05-05 15:48 28.81987 -93.30263 34979 ft 518 kts 149°
2026-05-05 15:49 28.76173 -93.25388 34985 ft 518 kts 149°
2026-05-05 15:49 28.70369 -93.20529 34985 ft 517 kts 149°
2026-05-05 15:50 28.64573 -93.15681 34987 ft 517 kts 149°
2026-05-05 15:50 28.58783 -93.10842 34971 ft 516 kts 149°
2026-05-05 15:51 28.53972 -93.06827 34986 ft 515 kts 149°
2026-05-05 15:51 28.48189 -93.02017 34992 ft 515 kts 149°
2026-05-05 15:52 28.42410 -92.97216 34987 ft 515 kts 149°
2026-05-05 15:52 28.36639 -92.92409 34985 ft 514 kts 149°
2026-05-05 15:53 28.30857 -92.87615 34967 ft 514 kts 148°
2026-05-05 15:53 28.25080 -92.82845 34985 ft 513 kts 148°
2026-05-05 15:54 28.19343 -92.78095 34989 ft 513 kts 148°
2026-05-05 15:54 28.13575 -92.73317 34996 ft 513 kts 148°
2026-05-05 15:55 28.07807 -92.68562 34993 ft 513 kts 149°
2026-05-05 15:55 28.02044 -92.63817 34982 ft 512 kts 148°
2026-05-05 15:56 27.96286 -92.59076 35001 ft 511 kts 148°
2026-05-05 15:56 27.90542 -92.54351 35007 ft 510 kts 148°
2026-05-05 15:57 27.84800 -92.49640 35007 ft 509 kts 148°
2026-05-05 15:57 27.79060 -92.44939 35005 ft 509 kts 148°
2026-05-05 15:58 27.73326 -92.40253 35003 ft 509 kts 148°
2026-05-05 15:58 27.67595 -92.35557 35002 ft 508 kts 148°
2026-05-05 15:59 27.61875 -92.30877 35000 ft 508 kts 148°
2026-05-05 15:59 27.56148 -92.26212 35011 ft 507 kts 148°
2026-05-05 16:00 27.50427 -92.21563 35013 ft 507 kts 148°
2026-05-05 16:00 27.44756 -92.16951 35001 ft 507 kts 148°
2026-05-05 16:01 27.39030 -92.12303 34996 ft 508 kts 148°
2026-05-05 16:01 27.33295 -92.07657 34999 ft 508 kts 148°
2026-05-05 16:02 27.27553 -92.03008 35004 ft 509 kts 148°
2026-05-05 16:02 27.21795 -91.98358 35013 ft 509 kts 148°
2026-05-05 16:03 27.16040 -91.93712 35018 ft 510 kts 148°
2026-05-05 16:03 27.10282 -91.89058 35015 ft 510 kts 148°
2026-05-05 16:04 27.04520 -91.84410 35015 ft 510 kts 148°
2026-05-05 16:04 26.98736 -91.79764 35023 ft 510 kts 148°
2026-05-05 16:05 26.92998 -91.75158 35013 ft 511 kts 148°
2026-05-05 16:05 26.87222 -91.70526 35027 ft 511 kts 148°
2026-05-05 16:06 26.81449 -91.65898 35019 ft 510 kts 148°
2026-05-05 16:06 26.75679 -91.61281 35026 ft 509 kts 148°
2026-05-05 16:07 26.69915 -91.56679 35031 ft 509 kts 148°
2026-05-05 16:07 26.64154 -91.52083 35035 ft 509 kts 148°
2026-05-05 16:08 26.58389 -91.47482 35033 ft 508 kts 148°
2026-05-05 16:08 26.52631 -91.42896 35021 ft 508 kts 147°
2026-05-05 16:09 26.46886 -91.38326 35031 ft 507 kts 147°
2026-05-05 16:09 26.41135 -91.33760 35034 ft 507 kts 148°
2026-05-05 16:10 26.35390 -91.29211 35036 ft 506 kts 148°
2026-05-05 16:10 26.29640 -91.24662 35035 ft 506 kts 148°
2026-05-05 16:11 26.23899 -91.20122 35020 ft 506 kts 147°
2026-05-05 16:12 26.12433 -91.11056 35037 ft 505 kts 147°
2026-05-05 16:13 25.98151 -90.99808 35035 ft 504 kts 147°
2026-05-05 16:13 25.92427 -90.95315 35028 ft 503 kts 147°
2026-05-05 16:14 25.81009 -90.86352 35045 ft 501 kts 147°
2026-05-05 16:15 25.69632 -90.77451 35039 ft 500 kts 147°
2026-05-05 16:16 25.58251 -90.68577 35014 ft 501 kts 147°
2026-05-05 16:17 25.49696 -90.61906 35019 ft 501 kts 147°
2026-05-05 16:18 25.41119 -90.55242 35028 ft 502 kts 147°
2026-05-05 16:19 25.32554 -90.48572 35021 ft 502 kts 147°
2026-05-05 16:19 25.24013 -90.41970 35035 ft 502 kts 147°
2026-05-05 16:20 25.12576 -90.33135 35034 ft 502 kts 147°
2026-05-05 16:22 24.98268 -90.22085 35022 ft 502 kts 146°
2026-05-05 16:23 24.86790 -90.13269 35031 ft 503 kts 146°
2026-05-05 16:23 24.78181 -90.06649 35031 ft 503 kts 146°
2026-05-05 16:24 24.72443 -90.02243 35035 ft 503 kts 146°
2026-05-05 16:25 24.63820 -89.95645 35039 ft 504 kts 146°
2026-05-05 16:25 24.55178 -89.89049 35031 ft 504 kts 146°
2026-05-05 16:26 24.49094 -89.85313 35027 ft 499 kts 162°
2026-05-05 16:26 24.42392 -89.83703 35028 ft 490 kts 181°
2026-05-05 16:27 24.35584 -89.83365 35016 ft 490 kts 181°
2026-05-05 16:27 24.28769 -89.83008 35023 ft 490 kts 181°
2026-05-05 16:28 24.21952 -89.82644 35019 ft 490 kts 181°
2026-05-05 16:28 24.15134 -89.82296 35023 ft 490 kts 181°
2026-05-05 16:29 24.08321 -89.81950 35025 ft 490 kts 181°
2026-05-05 16:29 24.01506 -89.81601 35018 ft 490 kts 181°
2026-05-05 16:30 23.94688 -89.81252 35022 ft 490 kts 181°
2026-05-05 16:30 23.87924 -89.80907 35026 ft 490 kts 181°
2026-05-05 16:31 23.81110 -89.80559 35029 ft 490 kts 181°
2026-05-05 16:31 23.74289 -89.80208 35016 ft 490 kts 180°
2026-05-05 16:32 23.67466 -89.79849 35025 ft 490 kts 180°
2026-05-05 16:32 23.60658 -89.79478 35027 ft 490 kts 180°
2026-05-05 16:33 23.53854 -89.79117 35024 ft 489 kts 180°
2026-05-05 16:33 23.47047 -89.78756 35026 ft 489 kts 180°
2026-05-05 16:34 23.40239 -89.78399 35017 ft 489 kts 180°
2026-05-05 16:34 23.33434 -89.78043 35020 ft 489 kts 180°
2026-05-05 16:35 23.26636 -89.77692 35021 ft 489 kts 180°
2026-05-05 16:35 23.19876 -89.77339 35020 ft 489 kts 180°
2026-05-05 16:36 23.13075 -89.76974 35021 ft 489 kts 180°
2026-05-05 16:36 23.06280 -89.76611 35012 ft 489 kts 180°
2026-05-05 16:37 22.99485 -89.76245 35017 ft 488 kts 180°
2026-05-05 16:37 22.92697 -89.75893 35019 ft 488 kts 180°
2026-05-05 16:38 22.87058 -89.75607 35021 ft 488 kts 180°
2026-05-05 16:38 22.80277 -89.75258 35020 ft 488 kts 180°
2026-05-05 16:39 22.73590 -89.74037 35007 ft 491 kts 159°
2026-05-05 16:39 22.70551 -89.72366 35006 ft 491 kts 146°
2026-05-05 16:39 22.67914 -89.70027 35003 ft 490 kts 132°
2026-05-05 16:40 22.65812 -89.67137 34997 ft 487 kts 119°
2026-05-05 16:40 22.64325 -89.63890 34993 ft 483 kts 107°
2026-05-05 16:40 22.62278 -89.56994 34989 ft 483 kts 105°
2026-05-05 16:41 22.60237 -89.50054 34994 ft 484 kts 105°
2026-05-05 16:41 22.58185 -89.43103 34995 ft 485 kts 105°
2026-05-05 16:42 22.56121 -89.36158 35000 ft 485 kts 105°
2026-05-05 16:42 22.54061 -89.29206 35005 ft 485 kts 105°
2026-05-05 16:43 22.52024 -89.22293 35009 ft 485 kts 105°
2026-05-05 16:43 22.49961 -89.15343 35010 ft 485 kts 105°
2026-05-05 16:44 22.47884 -89.08391 35011 ft 485 kts 105°
2026-05-05 16:44 22.45817 -89.01450 35017 ft 485 kts 105°
2026-05-05 16:45 22.43742 -88.94505 35013 ft 485 kts 105°
2026-05-05 16:45 22.41671 -88.87575 35026 ft 484 kts 105°
2026-05-05 16:46 22.39598 -88.80648 35026 ft 484 kts 105°
2026-05-05 16:46 22.37518 -88.73735 35026 ft 484 kts 105°
2026-05-05 16:47 22.35443 -88.66860 35027 ft 484 kts 105°
2026-05-05 16:47 22.34402 -88.63401 34865 ft 484 kts 105°
2026-05-05 16:47 22.33362 -88.59943 34626 ft 483 kts 105°
2026-05-05 16:48 22.32324 -88.56496 34397 ft 483 kts 105°
2026-05-05 16:48 22.31282 -88.53041 34170 ft 483 kts 105°
2026-05-05 16:48 22.30239 -88.49582 33429 ft 488 kts 105°
2026-05-05 16:48 22.29181 -88.46073 32499 ft 494 kts 105°
2026-05-05 16:49 22.28109 -88.42535 31523 ft 499 kts 106°
2026-05-05 16:49 22.27021 -88.38956 30512 ft 503 kts 107°
2026-05-05 16:49 22.25926 -88.35356 29387 ft 504 kts 107°
2026-05-05 16:49 22.24840 -88.31790 28864 ft 495 kts 107°
2026-05-05 16:50 22.23766 -88.28273 28196 ft 492 kts 107°
2026-05-05 16:50 22.22701 -88.24774 27551 ft 489 kts 107°
2026-05-05 16:50 22.21647 -88.21302 26901 ft 485 kts 107°
2026-05-05 16:50 22.20600 -88.17851 26255 ft 482 kts 107°
2026-05-05 16:51 22.19559 -88.14427 25629 ft 479 kts 107°
2026-05-05 16:51 22.18523 -88.11026 24988 ft 476 kts 107°
2026-05-05 16:51 22.17486 -88.07635 24356 ft 474 kts 107°
2026-05-05 16:51 22.16457 -88.04268 23725 ft 472 kts 107°
2026-05-05 16:52 22.15430 -88.00921 23043 ft 469 kts 107°
2026-05-05 16:52 22.14383 -87.97609 22525 ft 461 kts 111°
2026-05-05 16:52 22.12906 -87.94603 22389 ft 447 kts 124°
2026-05-05 16:52 22.10945 -87.92081 22223 ft 431 kts 135°
2026-05-05 16:53 22.08787 -87.89899 21532 ft 420 kts 136°
2026-05-05 16:53 22.06674 -87.87804 20627 ft 411 kts 136°
2026-05-05 16:53 22.04598 -87.85762 20077 ft 409 kts 136°
2026-05-05 16:53 22.02492 -87.83695 19511 ft 407 kts 136°
2026-05-05 16:54 22.00408 -87.81652 18946 ft 403 kts 136°
2026-05-05 16:54 21.98346 -87.79627 18404 ft 398 kts 135°
2026-05-05 16:54 21.96313 -87.77621 17760 ft 395 kts 135°
2026-05-05 16:54 21.94307 -87.75639 17210 ft 388 kts 135°
2026-05-05 16:55 21.92319 -87.73676 16677 ft 388 kts 136°
2026-05-05 16:55 21.90329 -87.71712 16163 ft 386 kts 136°
2026-05-05 16:55 21.88359 -87.69769 15627 ft 383 kts 136°
2026-05-05 16:55 21.86411 -87.67850 15102 ft 377 kts 136°
2026-05-05 16:56 21.84482 -87.65950 14543 ft 372 kts 137°
2026-05-05 16:56 21.82588 -87.64083 14046 ft 367 kts 137°
2026-05-05 16:56 21.80741 -87.62265 13511 ft 362 kts 137°
2026-05-05 16:56 21.78893 -87.60448 12996 ft 358 kts 137°
2026-05-05 16:57 21.77050 -87.58639 12485 ft 357 kts 137°
2026-05-05 16:57 21.75225 -87.56850 12007 ft 355 kts 137°
2026-05-05 16:57 21.73407 -87.55061 11503 ft 353 kts 137°
2026-05-05 16:57 21.71600 -87.53281 11058 ft 351 kts 138°
2026-05-05 16:58 21.69801 -87.51512 10599 ft 348 kts 138°
2026-05-05 16:58 21.68061 -87.49803 10477 ft 330 kts 138°
2026-05-05 16:58 21.66409 -87.48183 10360 ft 315 kts 138°
2026-05-05 16:58 21.64804 -87.46610 10131 ft 309 kts 138°
2026-05-05 16:59 21.63206 -87.45092 9838 ft 305 kts 141°
2026-05-05 16:59 21.61570 -87.43651 9470 ft 302 kts 142°
2026-05-05 16:59 21.59930 -87.42262 8986 ft 298 kts 142°
2026-05-05 16:59 21.58311 -87.40909 8541 ft 292 kts 142°
2026-05-05 17:00 21.56721 -87.39577 8120 ft 288 kts 142°
2026-05-05 17:00 21.55147 -87.38249 7712 ft 288 kts 142°
2026-05-05 17:00 21.53585 -87.36924 7349 ft 284 kts 142°
2026-05-05 17:00 21.52050 -87.35620 6920 ft 279 kts 141°
2026-05-05 17:01 21.50544 -87.34337 6487 ft 274 kts 141°
2026-05-05 17:01 21.49062 -87.33071 6073 ft 272 kts 141°
2026-05-05 17:01 21.47576 -87.31799 5675 ft 273 kts 141°
2026-05-05 17:01 21.46095 -87.30531 5292 ft 271 kts 141°
2026-05-05 17:02 21.44629 -87.29277 4889 ft 269 kts 141°
2026-05-05 17:02 21.43170 -87.28030 4487 ft 266 kts 142°
2026-05-05 17:02 21.41732 -87.26798 4210 ft 260 kts 142°
2026-05-05 17:02 21.40360 -87.25620 4080 ft 247 kts 142°
2026-05-05 17:03 21.39068 -87.24513 3983 ft 235 kts 142°
2026-05-05 17:03 21.37800 -87.23509 3978 ft 227 kts 151°
2026-05-05 17:03 21.36388 -87.22738 3973 ft 228 kts 153°
2026-05-05 17:03 21.34969 -87.21972 3973 ft 230 kts 153°
2026-05-05 17:04 21.33536 -87.21198 3973 ft 232 kts 153°
2026-05-05 17:04 21.32099 -87.20421 3973 ft 230 kts 153°
2026-05-05 17:04 21.30666 -87.19645 3980 ft 230 kts 153°
2026-05-05 17:04 21.29233 -87.18868 3942 ft 234 kts 153°
2026-05-05 17:05 21.27780 -87.18081 3727 ft 232 kts 153°
2026-05-05 17:05 21.26357 -87.17308 3527 ft 226 kts 153°
2026-05-05 17:05 21.24953 -87.16544 3338 ft 227 kts 153°
2026-05-05 17:05 21.23546 -87.15779 3145 ft 226 kts 153°
2026-05-05 17:06 21.22266 -87.14813 3019 ft 237 kts 134°
2026-05-05 17:06 21.21202 -87.13380 2977 ft 249 kts 125°
2026-05-05 17:06 21.20255 -87.11848 2964 ft 240 kts 124°
2026-05-05 17:06 21.19379 -87.10419 2989 ft 221 kts 124°
2026-05-05 17:07 21.18546 -87.09080 2981 ft 213 kts 124°
2026-05-05 17:07 21.17731 -87.07772 2983 ft 209 kts 125°
2026-05-05 17:07 21.16930 -87.06488 2979 ft 206 kts 125°
2026-05-05 17:07 21.16132 -87.05207 2983 ft 208 kts 124°
2026-05-05 17:08 21.15337 -87.03933 2977 ft 207 kts 124°
2026-05-05 17:08 21.14577 -87.02714 2986 ft 186 kts 125°
2026-05-05 17:08 21.13889 -87.01610 2830 ft 172 kts 125°
2026-05-05 17:08 21.13242 -87.00574 2642 ft 164 kts 124°
2026-05-05 17:09 21.12625 -86.99586 2441 ft 157 kts 124°
2026-05-05 17:09 21.12026 -86.98627 2256 ft 152 kts 123°
2026-05-05 17:09 21.11446 -86.97699 2062 ft 148 kts 122°
2026-05-05 17:09 21.10866 -86.96770 1889 ft 150 kts 123°
2026-05-05 17:10 21.10288 -86.95845 1701 ft 145 kts 123°
2026-05-05 17:10 21.09743 -86.94972 1498 ft 142 kts 124°
2026-05-05 17:10 21.09195 -86.94095 1329 ft 140 kts 124°
2026-05-05 17:10 21.08652 -86.93226 1143 ft 140 kts 124°
2026-05-05 17:11 21.08112 -86.92362 971 ft 140 kts 125°
2026-05-05 17:11 21.07574 -86.91501 802 ft 139 kts 124°
2026-05-05 17:11 21.07038 -86.90643 632 ft 138 kts 125°
2026-05-05 17:11 21.06505 -86.89792 452 ft 138 kts 125°
2026-05-05 17:12 21.05972 -86.88935 244 ft 139 kts 126°
2026-05-05 17:12 21.05430 -86.88067 67 ft 140 kts 126°
2026-05-05 17:12 21.04928 -86.87272 33 ft 113 kts 123°
2026-05-05 17:12 21.04586 -86.86723 32 ft 63 kts 123°
2026-05-05 17:13 21.04400 -86.86465 31 ft 28 kts 141°
2026-05-05 17:13 21.04262 -86.86373 34 ft 21 kts 152°
2026-05-05 17:13 21.04146 -86.86312 41 ft 14 kts 152°
2026-05-05 17:13 21.04088 -86.86257 45 ft 10 kts 126°
2026-05-05 17:14 21.04037 -86.86214 45 ft 9 kts 160°
2026-05-05 17:14 21.03991 -86.86244 47 ft 6 kts 224°
2026-05-05 17:14 21.03973 -86.86261 50 ft 1 kts 221°
2026-05-05 17:14 21.03952 -86.86278 51 ft 7 kts 214°
2026-05-05 17:15 21.03888 -86.86322 51 ft 13 kts 213°
2026-05-05 17:15 21.03804 -86.86383 48 ft 17 kts 213°
2026-05-05 17:15 21.03700 -86.86456 37 ft 21 kts 213°
2026-05-05 17:15 21.03559 -86.86554 29 ft 26 kts 213°
2026-05-05 17:16 21.03409 -86.86661 29 ft 23 kts 213°
2026-05-05 17:16 21.03350 -86.86756 30 ft 16 kts 289°
2026-05-05 17:16 21.03413 -86.86861 29 ft 17 kts 303°
2026-05-05 17:16 21.03482 -86.86973 29 ft 19 kts 303°
2026-05-05 17:17 21.03548 -86.87077 30 ft 13 kts 304°
2026-05-05 17:17 21.03594 -86.87119 30 ft 3 kts 13°
2026-05-05 17:17 21.03612 -86.87102 29 ft 5 kts 40°
2026-05-05 17:17 21.03640 -86.87080 29 ft 3 kts 34°
2026-05-05 17:18 21.03648 -86.87074 29 ft 1 kts 34°
2026-05-05 17:18 21.03649 -86.87074 29 ft 0 kts 34°